Regional Weather Roundup
Issued by NWS Charleston, WV

Home | Current Version | Previous Version | Graphics & Text | Print | Product List | Glossary On
Versions: 1 2 3 4 5 6 7 8 9 10 11 12 13 14 15 16 17 18 19 20 21 22 23 24 25 26 27 28 29 30 31 32 33 34 35 36 37 38 39 40 41 42 43 44 45 46 47 48 49 50
000
ASUS41 KRLX 230610
RWRRLX
West Virginia Regional Weather Roundup
National Weather Service Charleston WV
200 AM EDT WED JUL 23 2014

Note: "fair" indicates few or no clouds below 12,000 feet with no
significant weather and/or obstructions to visibility.

WVZ003-230700-
Northern Panhandle of West Virginia

CITY           SKY/WX    TMP DP  RH WIND       PRES   REMARKS
WHEELING       CLEAR     74  68  81 S5        30.05S
$$

WVZ009-230700-
Northwest West Virginia

CITY           SKY/WX    TMP DP  RH WIND       PRES   REMARKS
PARKERSBURG      N/A    N/A N/A N/A MISG      30.07S
$$

WVZ006-230700-
Western West Virginia

CITY           SKY/WX    TMP DP  RH WIND       PRES   REMARKS
HUNTINGTON     MOCLDY    73  71  93 CALM      30.04F
$$

WVZ015-230700-
West Central West Virginia

CITY           SKY/WX    TMP DP  RH WIND       PRES   REMARKS
CHARLESTON     CLEAR     72  72 100 CALM      30.05F
$$

WVZ031-230700-
North Central West Virginia

CITY           SKY/WX    TMP DP  RH WIND       PRES   REMARKS
CLARKSBURG     CLEAR     71  67  87 CALM      30.07S
MORGANTOWN     CLEAR     73  68  84 CALM      30.08R
$$

WVZ035-042-045-230700-
South Central West Virginia

CITY           SKY/WX    TMP DP  RH WIND       PRES   REMARKS
BECKLEY        CLEAR     70  63  78 SE7       30.16F
BLUEFIELD      CLEAR     73  63  70 SW3       30.19F
LEWISBURG      CLOUDY    69  65  85 CALM      30.15F
$$

WVZ047-230700-
Northern Mountains of West Virginia

CITY           SKY/WX    TMP DP  RH WIND       PRES   REMARKS
ELKINS         CLEAR     68  66  93 CALM      30.13S FOG
$$

WVZ052-230700-
Eastern Panhandle of West Virginia

CITY           SKY/WX    TMP DP  RH WIND       PRES   REMARKS
MARTINSBURG    CLEAR     72  67  84 SE3       30.04F
PETERSBURG     CLOUDY    70  66  88 CALM      30.07S FOG
$$


USA.gov is the U.S. government's official web portal to all federal, state and local government web resources and services.